User: anonymous   Login
Location: Arapaho Elementary School
(32.9607°N, 96.7625°W)
Time: 15:55:50
(UTC+00:00)
Language:

Cosmos 1538 Rocket - Orbit

View from above orbital plane
View from above orbital plane
View from above satellite
View from above satellite

Ground track
Ground track

The orbit data is extracted from the following two-line orbital elements,

1 14760U 84019B   22145.19261511  .00000251  00000-0  95074-4 0  9997
2 14760  74.0454  54.0378 0028172 193.0823 166.9603 14.35980773  2366
Epoch (UTC): 25 May 2022 04:37:21
Eccentricity: 0.0028172
inclination: 74.0454°
perigee height: 751 km
apogee height: 792 km
right ascension of ascending node: 54.0378°
argument of perigee: 193.0823°
revolutions per day: 14.35980773
mean anomaly at epoch: 166.9603°
orbit number at epoch: 236

The dashed part of the orbit path shows where the satellite is in the earth's shadow,  

DLR